User: anonymous   Login
Location: Caltech
(34.1382°N, 118.1253°W)
Time: 02:16:12
(UTC-07:00)
Language:

Cosmos 1733 Rocket - Orbit

View from above orbital plane
View from above orbital plane
View from above satellite
View from above satellite

Ground track
Ground track

The orbit data is extracted from the following two-line orbital elements,

1 16612U 86018B   16126.79857734  .00000164  00000-0  16692-4 0  9994
2 16612  82.5148 318.6309 0019071  60.3427 354.4740 14.84075623531035
Epoch (UTC): 05 May 2016 19:09:57
Eccentricity: 0.0019071
inclination: 82.5148°
perigee height: 603 km
apogee height: 630 km
right ascension of ascending node: 318.6309°
argument of perigee: 60.3427°
revolutions per day: 14.84075623
mean anomaly at epoch: 354.4740°
orbit number at epoch: 53103

The dashed part of the orbit path shows where the satellite is in the earth's shadow,  

DLR